Location: Bukit Nyuki
(2.5885°N, 113.7476°E)
Time: 05:41:50
(UTC+00:00)

ASTEX 1 - Pass Details

Date: 18 May 2021
Orbit: 719 x 745 km, 92.7° (Epoch: 22 June)

Event Time Altitude Azimuth Distance (km) Brightness Sun altitude
Rises 20:37:25 0° 167° (SSE) 3,157 6.6 -23.4°
Reaches altitude 10° 20:39:44 10° 163° (SSE) 2,238 5.8 -22.9°
Maximum altitude 20:44:37 62° 83° (E) 830 3.9 -21.7°
Drops below altitude 10° 20:49:31 10° 3° (N) 2,244 6.2 -20.6°
Sets 20:51:50 0° 360° (N) 3,167 7.0 -20.1°
